QPF
0.16 0.15 0.13 0.12 0.12 0.14 0.15 0.13 0.15 0.14 0.13 0.12 0.09 0.07 0.08 0.11 0.09 0.09 0.09 0.06 0.05 0.05 0.05 0.06 0.07 0.08 0.08 0.10 0.11 0.08 0.07 0.09 0.09 0.07 0.05 0.05 0.04 0.04 0.05 0.05 0.05 0.06 0.05
0.13 0.12 0.10 0.10 0.11 0.10 0.11 0.13 0.17 0.17 0.16 0.17 0.11 0.08 0.08 0.08 0.07 0.08 0.08 0.10 0.07 0.05 0.05 0.06 0.08 0.09 0.09 0.10 0.10 0.07 0.07 0.07 0.07 0.07 0.06 0.05 0.04 0.04 0.04 0.04 0.05 0.06 0.05
0.09 0.09 0.10 0.09 0.09 0.09 0.09 0.13 0.15 0.14 0.18 0.20 0.14 0.08 0.07 0.07 0.09 0.10 0.10 0.11 0.11 0.08 0.06 0.05 0.06 0.06 0.06 0.06 0.07 0.08 0.08 0.08 0.07 0.06 0.06 0.06 0.05 0.03 0.03 0.03 0.04 0.04 0.04
0.07 0.09 0.10 0.07 0.07 0.07 0.09 0.13 0.13 0.12 0.16 0.20 0.17 0.12 0.10 0.10 0.13 0.12 0.10 0.10 0.10 0.08 0.07 0.06 0.04 0.04 0.05 0.05 0.07 0.08 0.07 0.07 0.06 0.06 0.05 0.05 0.05 0.05 0.04 0.04 0.04 0.04 0.04
0.07 0.09 0.10 0.10 0.09 0.09 0.09 0.09 0.10 0.11 0.14 0.19 0.18 0.15 0.12 0.12 0.14 0.11 0.09 0.08 0.07 0.07 0.06 0.05 0.04 0.04 0.06 0.07 0.07 0.07 0.07 0.07 0.06 0.05 0.04 0.04 0.04 0.05 0.06 0.06 0.05 0.05 0.05
0.09 0.10 0.11 0.09 0.08 0.09 0.10 0.10 0.10 0.11 0.14 0.14 0.13 0.12 0.11 0.10 0.10 0.09 0.08 0.08 0.08 0.08 0.07 0.07 0.08 0.07 0.07 0.07 0.06 0.06 0.06 0.06 0.05 0.04 0.04 0.05 0.05 0.05 0.05 0.06 0.05 0.06 0.07
0.08 0.11 0.12 0.11 0.10 0.09 0.08 0.08 0.11 0.11 0.10 0.08 0.09 0.09 0.08 0.07 0.07 0.06 0.05 0.06 0.07 0.07 0.06 0.07 0.10 0.14 0.14 0.08 0.05 0.05 0.06 0.05 0.03 0.03 0.03 0.04 0.04 0.04 0.05 0.05 0.05 0.06 0.07
0.07 0.08 0.10 0.10 0.10 0.10 0.10 0.10 0.11 0.10 0.09 0.09 0.09 0.09 0.08 0.08 0.08 0.06 0.05 0.06 0.07 0.08 0.08 0.08 0.10 0.12 0.09 0.08 0.06 0.05 0.04 0.04 0.03 0.04 0.03 0.03 0.03 0.03 0.04 0.06 0.07 0.06 0.06
0.05 0.05 0.06 0.07 0.09 0.09 0.10 0.09 0.09 0.09 0.10 0.09 0.08 0.09 0.10 0.11 0.11 0.08 0.08 0.07 0.08 0.10 0.11 0.10 0.08 0.07 0.07 0.07 0.05 0.05 0.03 0.03 0.03 0.04 0.05 0.04 0.04 0.04 0.05 0.06 0.07 0.07 0.07
0.04 0.03 0.03 0.04 0.06 0.07 0.08 0.06 0.06 0.06 0.08 0.09 0.09 0.08 0.11 0.12 0.11 0.08 0.09 0.08 0.09 0.12 0.13 0.12 0.08 0.06 0.06 0.07 0.05 0.05 0.03 0.02 0.02 0.03 0.04 0.04 0.05 0.06 0.07 0.09 0.08 0.08 0.08
0.05 0.03 0.03 0.04 0.04 0.06 0.06 0.05 0.06 0.06 0.06 0.07 0.09 0.11 0.12 0.12 0.11 0.11 0.11 0.10 0.10 0.09 0.10 0.11 0.08 0.05 0.06 0.07 0.07 0.05 0.06 0.03 0.02 0.02 0.02 0.02 0.04 0.06 0.07 0.07 0.07 0.07 0.08
0.05 0.03 0.03 0.03 0.04 0.05 0.05 0.04 0.05 0.05 0.06 0.07 0.07 0.08 0.10 0.12 0.13 0.13 0.14 0.13 0.11 0.11 0.13 0.11 0.06 0.04 0.04 0.06 0.05 0.06 0.06 0.05 0.03 0.02 0.01 0.02 0.02 0.03 0.06 0.06 0.06 0.06 0.07
0.05 0.04 0.03 0.03 0.03 0.04 0.05 0.06 0.06 0.06 0.06 0.07 0.06 0.07 0.08 0.08 0.09 0.10 0.11 0.10 0.09 0.08 0.07 0.05 0.03 0.03 0.03 0.05 0.06 0.04 0.05 0.05 0.04 0.04 0.03 0.02 0.02 0.02 0.03 0.06 0.06 0.07 0.06
0.03 0.03 0.03 0.03 0.04 0.04 0.04 0.06 0.06 0.06 0.07 0.07 0.05 0.06 0.06 0.05 0.06 0.07 0.08 0.08 0.08 0.07 0.08 0.07 0.04 0.03 0.03 0.04 0.05 0.04 0.04 0.05 0.05 0.05 0.04 0.03 0.02 0.01 0.01 0.03 0.05 0.07 0.07
0.04 0.05 0.04 0.04 0.05 0.05 0.04 0.05 0.05 0.06 0.07 0.07 0.05 0.05 0.05 0.05 0.06 0.06 0.06 0.07 0.08 0.07 0.08 0.10 0.06 0.03 0.03 0.04 0.05 0.04 0.06 0.07 0.07 0.06 0.06 0.04 0.02 0.01 0.01 0.02 0.03 0.05 0.06
0.04 0.04 0.04 0.04 0.04 0.04 0.04 0.05 0.06 0.06 0.07 0.06 0.06 0.07 0.06 0.04 0.05 0.04 0.04 0.06 0.07 0.07 0.06 0.07 0.05 0.03 0.03 0.04 0.06 0.04 0.04 0.05 0.05 0.05 0.04 0.04 0.02 0.01 0.01 0.01 0.01 0.02 0.03
0.04 0.03 0.03 0.04 0.04 0.03 0.05 0.05 0.04 0.04 0.04 0.05 0.06 0.07 0.06 0.05 0.05 0.04 0.04 0.04 0.05 0.05 0.05 0.06 0.06 0.04 0.03 0.04 0.05 0.04 0.02 0.02 0.03 0.04 0.03 0.03 0.02 0.01 0.01 0.01 0.01 0.01 0.01
0.03 0.04 0.03 0.03 0.02 0.03 0.04 0.04 0.03 0.05 0.04 0.04 0.04 0.06 0.04 0.05 0.06 0.05 0.05 0.05 0.05 0.05 0.04 0.07 0.06 0.04 0.03 0.05 0.04 0.04 0.04 0.03 0.03 0.04 0.04 0.04 0.02 0.02 0.01 0.01 0.01 0.01 0.01
0.04 0.04 0.05 0.04 0.02 0.02 0.03 0.03 0.04 0.03 0.03 0.04 0.04 0.05 0.05 0.06 0.05 0.06 0.06 0.06 0.05 0.05 0.06 0.07 0.06 0.06 0.05 0.03 0.04 0.03 0.04 0.04 0.04 0.03 0.03 0.02 0.01 0.01 0.01 0.01 0.01 0.01 0.01
0.04 0.04 0.05 0.04 0.04 0.03 0.02 0.03 0.04 0.03 0.04 0.05 0.05 0.06 0.07 0.07 0.07 0.07 0.06 0.06 0.05 0.06 0.06 0.06 0.05 0.06 0.06 0.05 0.05 0.03 0.03 0.03 0.04 0.03 0.02 0.02 0.01 0.01 0.01 0.01 0.01 0.01 0.01
0.03 0.04 0.04 0.03 0.03 0.03 0.02 0.03 0.04 0.04 0.04 0.05 0.06 0.07 0.07 0.07 0.09 0.08 0.06 0.07 0.07 0.07 0.06 0.05 0.04 0.06 0.07 0.08 0.06 0.05 0.05 0.04 0.03 0.03 0.03 0.02 0.02 0.02 0.01 0.01 0.01 0.01 0.01
0.03 0.04 0.05 0.05 0.05 0.02 0.02 0.02 0.03 0.05 0.05 0.06 0.07 0.06 0.06 0.05 0.07 0.08 0.08 0.08 0.08 0.06 0.06 0.08 0.08 0.07 0.08 0.08 0.07 0.05 0.05 0.04 0.05 0.04 0.04 0.04 0.03 0.03 0.02 0.02 0.01 0.00 0.00
0.04 0.04 0.05 0.06 0.06 0.05 0.04 0.02 0.02 0.04 0.06 0.06 0.07 0.07 0.05 0.05 0.06 0.07 0.07 0.06 0.06 0.06 0.05 0.06 0.07 0.07 0.07 0.06 0.06 0.05 0.06 0.06 0.06 0.05 0.04 0.04 0.03 0.02 0.02 0.02 0.01 0.01 0.00
0.05 0.05 0.04 0.05 0.05 0.04 0.03 0.03 0.02 0.03 0.06 0.05 0.05 0.06 0.07 0.08 0.07 0.07 0.07 0.07 0.06 0.06 0.06 0.04 0.04 0.04 0.04 0.05 0.06 0.05 0.06 0.07 0.07 0.05 0.04 0.04 0.03 0.02 0.02 0.01 0.01 0.01 0.01
0.04 0.04 0.04 0.05 0.05 0.04 0.04 0.03 0.02 0.02 0.03 0.03 0.03 0.05 0.06 0.07 0.08 0.08 0.07 0.08 0.08 0.07 0.05 0.04 0.04 0.03 0.02 0.03 0.04 0.05 0.07 0.08 0.07 0.06 0.04 0.03 0.02 0.02 0.02 0.02 0.01 0.01 0.01
0.05 0.04 0.05 0.05 0.05 0.04 0.04 0.02 0.02 0.03 0.04 0.04 0.04 0.05 0.05 0.06 0.06 0.06 0.06 0.07 0.08 0.09 0.08 0.07 0.06 0.04 0.03 0.03 0.03 0.04 0.05 0.06 0.06 0.05 0.04 0.02 0.02 0.02 0.03 0.02 0.02 0.02 0.02
MSLP
1014.03 1014.20 1014.30 1014.37 1014.42 1014.49 1014.59 1014.71 1014.85 1014.96 1015.03 1015.03 1014.96 1014.83 1014.67 1014.52 1014.40 1014.36 1014.40 1014.54 1014.75 1015.01 1015.30 1015.58 1015.85 1016.09 1016.30 1016.50 1016.70 1016.92 1017.16 1017.43 1017.73 1018.04 1018.37 1018.68 1018.98 1019.25 1019.49 1019.68 1019.83 1019.96 1020.08
1013.60 1013.77 1013.89 1013.97 1014.04 1014.12 1014.22 1014.34 1014.46 1014.58 1014.66 1014.68 1014.64 1014.54 1014.39 1014.23 1014.08 1013.97 1013.94 1013.98 1014.10 1014.30 1014.54 1014.82 1015.10 1015.39 1015.66 1015.92 1016.18 1016.43 1016.69 1016.96 1017.26 1017.57 1017.89 1018.22 1018.54 1018.84 1019.10 1019.33 1019.53 1019.69 1019.84
1013.15 1013.34 1013.50 1013.63 1013.74 1013.84 1013.96 1014.08 1014.21 1014.33 1014.42 1014.46 1014.43 1014.35 1014.20 1014.01 1013.81 1013.62 1013.48 1013.42 1013.43 1013.54 1013.72 1013.98 1014.28 1014.61 1014.95 1015.28 1015.59 1015.89 1016.17 1016.45 1016.74 1017.05 1017.37 1017.70 1018.03 1018.36 1018.66 1018.93 1019.17 1019.38 1019.57
1012.70 1012.93 1013.13 1013.32 1013.50 1013.65 1013.80 1013.95 1014.08 1014.20 1014.30 1014.34 1014.33 1014.25 1014.09 1013.88 1013.61 1013.34 1013.10 1012.91 1012.80 1012.81 1012.92 1013.14 1013.45 1013.81 1014.20 1014.59 1014.95 1015.29 1015.61 1015.90 1016.19 1016.48 1016.79 1017.12 1017.46 1017.81 1018.15 1018.47 1018.75 1019.01 1019.25
1012.24 1012.50 1012.77 1013.04 1013.28 1013.50 1013.70 1013.87 1014.02 1014.14 1014.24 1014.30 1014.29 1014.21 1014.05 1013.81 1013.50 1013.15 1012.80 1012.50 1012.28 1012.18 1012.21 1012.37 1012.66 1013.03 1013.45 1013.88 1014.29 1014.67 1015.01 1015.31 1015.60 1015.89 1016.19 1016.51 1016.86 1017.22 1017.58 1017.93 1018.26 1018.57 1018.85
1011.75 1012.05 1012.37 1012.71 1013.03 1013.31 1013.56 1013.76 1013.93 1014.07 1014.17 1014.24 1014.25 1014.19 1014.04 1013.79 1013.45 1013.05 1012.62 1012.22 1011.90 1011.69 1011.63 1011.72 1011.96 1012.31 1012.74 1013.19 1013.63 1014.03 1014.39 1014.70 1014.99 1015.28 1015.57 1015.89 1016.23 1016.59 1016.97 1017.35 1017.71 1018.05 1018.36
1011.22 1011.53 1011.90 1012.30 1012.67 1013.01 1013.30 1013.53 1013.72 1013.87 1014.00 1014.09 1014.13 1014.10 1013.99 1013.76 1013.43 1013.01 1012.54 1012.07 1011.66 1011.35 1011.20 1011.21 1011.38 1011.69 1012.09 1012.53 1012.98 1013.39 1013.76 1014.09 1014.39 1014.68 1014.97 1015.28 1015.61 1015.97 1016.35 1016.73 1017.11 1017.47 1017.81
1010.64 1010.95 1011.33 1011.75 1012.16 1012.53 1012.84 1013.10 1013.31 1013.48 1013.63 1013.76 1013.85 1013.88 1013.82 1013.65 1013.37 1012.97 1012.49 1011.99 1011.52 1011.15 1010.91 1010.83 1010.93 1011.17 1011.51 1011.92 1012.35 1012.77 1013.16 1013.50 1013.81 1014.11 1014.41 1014.72 1015.04 1015.39 1015.76 1016.13 1016.50 1016.87 1017.22
1010.01 1010.28 1010.64 1011.05 1011.45 1011.83 1012.15 1012.42 1012.64 1012.84 1013.03 1013.21 1013.36 1013.46 1013.49 1013.40 1013.19 1012.85 1012.41 1011.91 1011.42 1011.00 1010.70 1010.54 1010.55 1010.72 1011.00 1011.37 1011.77 1012.18 1012.58 1012.95 1013.29 1013.61 1013.92 1014.24 1014.56 1014.89 1015.24 1015.59 1015.94 1016.30 1016.66
1009.36 1009.56 1009.86 1010.22 1010.59 1010.93 1011.24 1011.50 1011.73 1011.95 1012.17 1012.40 1012.63 1012.82 1012.94 1012.95 1012.83 1012.57 1012.20 1011.75 1011.28 1010.84 1010.50 1010.28 1010.22 1010.31 1010.53 1010.85 1011.23 1011.63 1012.04 1012.44 1012.81 1013.17 1013.52 1013.85 1014.18 1014.50 1014.82 1015.15 1015.48 1015.82 1016.18
1008.70 1008.81 1009.03 1009.31 1009.61 1009.91 1010.17 1010.41 1010.64 1010.87 1011.12 1011.40 1011.68 1011.95 1012.16 1012.27 1012.26 1012.10 1011.82 1011.44 1011.01 1010.60 1010.25 1010.00 1009.90 1009.93 1010.10 1010.38 1010.73 1011.13 1011.56 1011.99 1012.41 1012.81 1013.19 1013.56 1013.90 1014.22 1014.53 1014.83 1015.14 1015.46 1015.81
1008.09 1008.11 1008.23 1008.41 1008.62 1008.84 1009.05 1009.25 1009.45 1009.68 1009.95 1010.25 1010.57 1010.90 1011.18 1011.38 1011.46 1011.41 1011.23 1010.94 1010.59 1010.23 1009.91 1009.67 1009.55 1009.56 1009.69 1009.94 1010.27 1010.68 1011.12 1011.59 1012.05 1012.51 1012.94 1013.35 1013.71 1014.04 1014.34 1014.63 1014.92 1015.23 1015.57
1007.56 1007.49 1007.51 1007.59 1007.71 1007.84 1007.98 1008.12 1008.29 1008.49 1008.74 1009.04 1009.38 1009.74 1010.06 1010.32 1010.49 1010.53 1010.45 1010.27 1010.02 1009.74 1009.48 1009.29 1009.18 1009.19 1009.32 1009.55 1009.88 1010.28 1010.74 1011.24 1011.75 1012.26 1012.74 1013.18 1013.58 1013.93 1014.24 1014.52 1014.80 1015.11 1015.44
1007.15 1007.02 1006.95 1006.94 1006.96 1007.00 1007.05 1007.13 1007.23 1007.38 1007.59 1007.87 1008.19 1008.53 1008.87 1009.16 1009.38 1009.50 1009.52 1009.45 1009.31 1009.15 1008.98 1008.86 1008.81 1008.85 1008.98 1009.21 1009.54 1009.94 1010.41 1010.93 1011.47 1012.02 1012.55 1013.03 1013.47 1013.85 1014.17 1014.47 1014.75 1015.05 1015.39
1006.90 1006.72 1006.59 1006.49 1006.41 1006.36 1006.32 1006.31 1006.34 1006.42 1006.57 1006.78 1007.04 1007.35 1007.66 1007.96 1008.21 1008.39 1008.50 1008.54 1008.53 1008.49 1008.44 1008.42 1008.44 1008.53 1008.69 1008.93 1009.26 1009.66 1010.13 1010.65 1011.21 1011.78 1012.34 1012.86 1013.34 1013.75 1014.11 1014.42 1014.72 1015.02 1015.36
1006.82 1006.61 1006.42 1006.25 1006.09 1005.94 1005.81 1005.70 1005.63 1005.61 1005.67 1005.79 1005.98 1006.22 1006.49 1006.77 1007.03 1007.26 1007.45 1007.60 1007.71 1007.80 1007.88 1007.97 1008.09 1008.24 1008.44 1008.70 1009.02 1009.41 1009.86 1010.38 1010.94 1011.52 1012.10 1012.65 1013.16 1013.61 1014.00 1014.35 1014.67 1014.99 1015.33
1006.88 1006.67 1006.44 1006.20 1005.96 1005.71 1005.47 1005.25 1005.06 1004.94 1004.88 1004.89 1004.99 1005.14 1005.36 1005.60 1005.87 1006.14 1006.40 1006.64 1006.87 1007.09 1007.30 1007.51 1007.72 1007.94 1008.18 1008.46 1008.78 1009.16 1009.60 1010.09 1010.64 1011.22 1011.81 1012.39 1012.93 1013.42 1013.86 1014.24 1014.59 1014.93 1015.27
1007.06 1006.84 1006.58 1006.27 1005.94 1005.59 1005.23 1004.88 1004.57 1004.31 1004.13 1004.03 1004.02 1004.09 1004.24 1004.45 1004.71 1005.01 1005.33 1005.67 1006.01 1006.35 1006.67 1006.99 1007.29 1007.58 1007.87 1008.18 1008.50 1008.87 1009.29 1009.77 1010.30 1010.88 1011.48 1012.09 1012.66 1013.20 1013.68 1014.11 1014.49 1014.85 1015.19
1007.31 1007.08 1006.77 1006.40 1005.97 1005.50 1005.01 1004.53 1004.08 1003.69 1003.38 1003.16 1003.05 1003.04 1003.13 1003.31 1003.56 1003.88 1004.26 1004.67 1005.10 1005.54 1005.97 1006.38 1006.77 1007.13 1007.46 1007.79 1008.13 1008.50 1008.91 1009.39 1009.92 1010.51 1011.13 1011.76 1012.38 1012.96 1013.50 1013.97 1014.40 1014.78 1015.13
1007.57 1007.31 1006.96 1006.51 1005.98 1005.38 1004.76 1004.14 1003.55 1003.02 1002.59 1002.26 1002.05 1001.97 1002.01 1002.16 1002.41 1002.76 1003.17 1003.64 1004.15 1004.67 1005.18 1005.67 1006.13 1006.54 1006.93 1007.29 1007.65 1008.04 1008.46 1008.95 1009.50 1010.11 1010.76 1011.43 1012.10 1012.74 1013.33 1013.86 1014.33 1014.73 1015.09
1007.81 1007.52 1007.11 1006.57 1005.94 1005.23 1004.47 1003.71 1002.99 1002.33 1001.78 1001.36 1001.07 1000.93 1000.93 1001.06 1001.31 1001.67 1002.12 1002.63 1003.19 1003.76 1004.33 1004.88 1005.39 1005.86 1006.29 1006.69 1007.09 1007.50 1007.96 1008.47 1009.06 1009.71 1010.40 1011.13 1011.85 1012.55 1013.20 1013.78 1014.29 1014.73 1015.09
1008.01 1007.69 1007.22 1006.61 1005.88 1005.06 1004.18 1003.30 1002.45 1001.69 1001.04 1000.54 1000.19 1000.00 999.97 1000.09 1000.35 1000.72 1001.18 1001.72 1002.31 1002.91 1003.51 1004.10 1004.64 1005.15 1005.61 1006.06 1006.49 1006.95 1007.45 1008.01 1008.64 1009.34 1010.08 1010.86 1011.65 1012.40 1013.11 1013.74 1014.29 1014.75 1015.13
1008.19 1007.84 1007.33 1006.66 1005.85 1004.94 1003.98 1003.00 1002.06 1001.22 1000.51 999.95 999.55 999.34 999.29 999.40 999.65 1000.03 1000.50 1001.04 1001.63 1002.25 1002.86 1003.45 1004.01 1004.54 1005.03 1005.50 1005.98 1006.47 1007.01 1007.62 1008.29 1009.03 1009.83 1010.65 1011.48 1012.29 1013.03 1013.71 1014.29 1014.77 1015.16
1008.38 1008.02 1007.49 1006.79 1005.94 1004.99 1003.97 1002.94 1001.96 1001.07 1000.32 999.73 999.32 999.09 999.03 999.14 999.39 999.76 1000.22 1000.76 1001.33 1001.93 1002.52 1003.10 1003.66 1004.18 1004.68 1005.16 1005.65 1006.17 1006.74 1007.37 1008.07 1008.83 1009.65 1010.50 1011.36 1012.19 1012.96 1013.66 1014.26 1014.76 1015.16
1008.63 1008.29 1007.77 1007.08 1006.23 1005.28 1004.26 1003.23 1002.24 1001.35 1000.59 1000.01 999.60 999.37 999.31 999.42 999.66 1000.02 1000.46 1000.97 1001.52 1002.08 1002.64 1003.18 1003.71 1004.20 1004.68 1005.15 1005.63 1006.15 1006.71 1007.33 1008.02 1008.77 1009.58 1010.43 1011.27 1012.10 1012.87 1013.57 1014.18 1014.69 1015.10
1008.97 1008.67 1008.20 1007.55 1006.76 1005.86 1004.89 1003.90 1002.95 1002.10 1001.38 1000.82 1000.43 1000.21 1000.17 1000.27 1000.50 1000.84 1001.25 1001.72 1002.23 1002.74 1003.25 1003.74 1004.21 1004.66 1005.09 1005.52 1005.96 1006.43 1006.95 1007.53 1008.17 1008.88 1009.63 1010.43 1011.23 1012.02 1012.76 1013.44 1014.04 1014.55 1014.96
Thickness
5788 5787 5786 5784 5782 5781 5779 5777 5776 5776 5776 5777 5776 5776 5775 5774 5773 5772 5770 5768 5765 5764 5762 5760 5758 5756 5754 5752 5750 5749 5747 5745 5743 5741 5740 5738 5736 5735 5733 5732 5730 5729 5728
5789 5787 5785 5784 5782 5781 5779 5778 5777 5776 5776 5776 5776 5775 5774 5773 5771 5771 5769 5767 5764 5763 5761 5759 5757 5755 5753 5751 5749 5748 5746 5744 5742 5740 5739 5737 5736 5734 5732 5731 5730 5728 5727
5789 5787 5785 5783 5783 5782 5780 5779 5777 5776 5775 5775 5774 5774 5773 5773 5772 5771 5770 5767 5764 5762 5760 5758 5756 5754 5752 5751 5748 5746 5744 5742 5741 5739 5738 5737 5735 5733 5732 5730 5729 5728 5727
5789 5787 5785 5783 5783 5782 5780 5778 5776 5774 5773 5772 5771 5771 5771 5771 5771 5770 5769 5767 5764 5762 5759 5757 5755 5753 5751 5749 5747 5745 5743 5741 5740 5738 5737 5736 5734 5733 5731 5730 5728 5727 5726
5790 5787 5785 5784 5783 5782 5780 5779 5776 5774 5771 5770 5769 5769 5770 5770 5769 5768 5767 5765 5764 5762 5759 5756 5754 5752 5750 5748 5746 5744 5742 5740 5739 5737 5736 5735 5733 5732 5731 5730 5728 5727 5726
5789 5788 5785 5784 5782 5780 5778 5777 5774 5773 5772 5770 5770 5769 5769 5769 5768 5767 5766 5765 5763 5762 5759 5756 5753 5750 5748 5746 5745 5742 5741 5739 5738 5736 5735 5734 5733 5731 5730 5729 5728 5727 5726
5789 5787 5785 5783 5782 5779 5777 5776 5774 5771 5770 5770 5766 5763 5765 5767 5767 5766 5765 5763 5762 5761 5759 5756 5753 5750 5747 5745 5743 5741 5740 5738 5736 5735 5734 5733 5732 5730 5729 5728 5727 5726 5725
5788 5787 5784 5782 5781 5778 5776 5775 5773 5769 5769 5770 5763 5757 5754 5756 5761 5764 5763 5762 5761 5759 5756 5755 5753 5750 5747 5745 5742 5740 5738 5737 5735 5734 5732 5731 5730 5730 5729 5728 5727 5726 5725
5787 5785 5783 5781 5780 5778 5775 5774 5772 5769 5765 5767 5767 5759 5751 5746 5751 5757 5760 5759 5758 5757 5755 5752 5750 5749 5746 5743 5741 5739 5737 5736 5734 5733 5732 5731 5729 5729 5728 5727 5727 5727 5726
5786 5785 5783 5781 5778 5777 5774 5773 5772 5770 5767 5763 5764 5764 5760 5756 5748 5745 5751 5754 5755 5753 5751 5751 5748 5746 5744 5742 5740 5738 5736 5734 5733 5732 5731 5729 5729 5727 5727 5726 5727 5726 5726
5784 5783 5781 5780 5777 5775 5773 5772 5770 5768 5766 5763 5760 5759 5757 5756 5753 5745 5740 5744 5747 5749 5749 5748 5747 5745 5744 5742 5739 5737 5735 5733 5732 5730 5729 5728 5727 5726 5725 5725 5725 5725 5724
5782 5781 5780 5777 5775 5773 5772 5770 5768 5766 5764 5762 5760 5758 5755 5752 5749 5746 5741 5740 5740 5744 5747 5747 5746 5744 5743 5741 5739 5736 5734 5732 5730 5728 5727 5726 5725 5724 5724 5723 5723 5723 5722
5778 5778 5778 5775 5773 5772 5770 5768 5765 5764 5762 5760 5757 5756 5755 5754 5752 5748 5743 5740 5739 5741 5743 5744 5744 5744 5742 5739 5737 5735 5732 5730 5728 5727 5726 5724 5723 5722 5721 5721 5721 5720 5720
5778 5778 5776 5774 5772 5770 5769 5766 5764 5762 5760 5758 5756 5755 5753 5753 5752 5749 5744 5739 5734 5734 5737 5738 5742 5742 5740 5738 5735 5732 5730 5728 5726 5725 5724 5722 5721 5719 5719 5718 5718 5718 5717
5778 5776 5774 5772 5770 5768 5766 5764 5761 5759 5758 5755 5754 5753 5751 5750 5749 5748 5746 5742 5734 5727 5728 5733 5735 5738 5738 5736 5733 5730 5729 5726 5725 5723 5721 5720 5719 5718 5717 5716 5715 5714 5714
5775 5772 5771 5769 5767 5766 5764 5762 5759 5758 5755 5753 5751 5749 5747 5747 5746 5745 5744 5742 5739 5732 5726 5731 5733 5735 5735 5734 5731 5729 5727 5725 5723 5722 5719 5718 5717 5715 5714 5713 5712 5711 5710
5770 5768 5766 5765 5763 5762 5760 5758 5756 5755 5752 5750 5748 5746 5744 5743 5741 5741 5740 5739 5736 5733 5726 5728 5731 5732 5732 5730 5728 5727 5725 5723 5721 5720 5718 5716 5714 5713 5712 5710 5709 5707 5706
5767 5765 5762 5760 5759 5758 5756 5754 5752 5751 5748 5746 5745 5743 5741 5741 5738 5737 5735 5734 5733 5732 5727 5723 5725 5726 5727 5727 5725 5724 5723 5722 5720 5718 5716 5714 5712 5711 5709 5707 5706 5704 5703
5762 5761 5758 5756 5754 5753 5752 5750 5749 5747 5745 5743 5742 5739 5738 5736 5733 5732 5731 5730 5729 5729 5727 5723 5721 5723 5722 5723 5720 5719 5719 5718 5718 5716 5713 5711 5709 5708 5706 5704 5702 5700 5699
5758 5756 5755 5753 5751 5749 5748 5746 5744 5742 5741 5739 5738 5736 5735 5732 5730 5728 5727 5725 5725 5723 5722 5719 5718 5717 5716 5717 5715 5711 5710 5711 5712 5712 5709 5707 5706 5704 5702 5701 5699 5697 5696
5754 5752 5750 5749 5747 5745 5744 5741 5738 5738 5735 5734 5733 5732 5731 5729 5727 5724 5722 5720 5719 5717 5715 5713 5712 5711 5709 5708 5707 5707 5704 5705 5705 5707 5704 5703 5701 5699 5697 5696 5695 5693 5692
5748 5747 5744 5743 5741 5741 5739 5736 5733 5732 5731 5729 5727 5727 5726 5724 5722 5720 5717 5716 5714 5712 5709 5708 5707 5705 5704 5705 5704 5703 5700 5697 5695 5700 5697 5696 5697 5694 5694 5693 5691 5689 5687
5741 5739 5738 5737 5735 5733 5732 5730 5728 5726 5726 5724 5723 5721 5722 5722 5718 5715 5713 5711 5710 5709 5708 5705 5703 5702 5701 5702 5700 5697 5695 5692 5691 5694 5692 5689 5691 5689 5689 5688 5686 5684 5682
5735 5733 5732 5731 5730 5728 5725 5723 5722 5721 5720 5720 5719 5717 5715 5714 5713 5710 5709 5707 5706 5705 5704 5702 5702 5700 5700 5699 5696 5694 5691 5689 5688 5689 5687 5681 5683 5683 5684 5682 5681 5678 5676
5729 5728 5727 5726 5724 5723 5720 5717 5715 5714 5714 5714 5714 5713 5711 5709 5707 5705 5703 5701 5699 5699 5700 5698 5696 5695 5694 5692 5691 5687 5684 5680 5677 5679 5681 5677 5676 5676 5676 5675 5674 5672 5670
5723 5723 5721 5720 5719 5717 5715 5712 5709 5709 5707 5707 5707 5707 5705 5703 5700 5698 5696 5694 5691 5691 5692 5691 5689 5688 5687 5685 5684 5681 5678 5674 5672 5671 5674 5671 5668 5667 5665 5668 5667 5665 5663